| time (UTC) | temp F | wind direction | speed MPH | gust MPH | rain 1hr in | rain 24hr in | rain mn in | humidity % | barometer mb |
| 20260504045513 | 51 | 311 | 3.0 | 6.0 | 0.00 | 0.19 | 0.04 | 96 | 1006.1 |
| 20260504043513 | 51 | 339 | 3.0 | 6.0 | 0.00 | 0.19 | 0.04 | 96 | 1006.0 |
| 20260504040512 | 52 | 346 | 3.0 | 9.0 | 0.00 | 0.19 | 0.04 | 96 | 1005.8 |
| 20260504035513 | 53 | 346 | 5.0 | 10.0 | 0.00 | 0.19 | 0.04 | 96 | 1005.8 |
| 20260504032512 | 54 | 234 | 9.0 | 14.0 | 0.00 | 0.19 | 0.04 | 96 | 1005.6 |
| 20260504025512 | 54 | 237 | 9.0 | 14.0 | 0.01 | 0.19 | 0.04 | 96 | 1005.6 |
| 20260504024512 | 54 | 229 | 7.0 | 15.0 | 0.01 | 0.19 | 0.04 | 96 | 1005.6 |
| 20260504022512 | 53 | 197 | 3.0 | 6.0 | 0.01 | 0.19 | 0.04 | 96 | 1005.7 |
| 20260504021513 | 53 | 324 | 0.0 | 0.0 | 0.01 | 0.19 | 0.04 | 96 | 1005.8 |
| 20260504020512 | 53 | 318 | 0.0 | 0.0 | 0.00 | 0.18 | 0.03 | 96 | 1005.7 |
| 20260504015512 | 53 | 323 | 0.0 | 0.0 | 0.01 | 0.18 | 0.03 | 96 | 1005.6 |
| 20260504014512 | 53 | 318 | 0.0 | 0.0 | 0.01 | 0.18 | 0.03 | 96 | 1005.7 |
| 20260504010512 | 53 | 318 | 1.0 | 3.0 | 0.01 | 0.18 | 0.03 | 96 | 1005.9 |
| 20260504005512 | 54 | 313 | 0.0 | 2.0 | 0.00 | 0.17 | 0.02 | 95 | 1005.9 |
| 20260504004513 | 54 | 309 | 0.0 | 0.0 | 0.00 | 0.17 | 0.02 | 96 | 1005.8 |
| 20260504003512 | 54 | 341 | 0.0 | 0.0 | 0.01 | 0.17 | 0.02 | 96 | 1005.9 |
| 20260504002512 | 54 | 315 | 0.0 | 1.0 | 0.01 | 0.17 | 0.02 | 96 | 1006.0 |
| 20260504001513 | 54 | 340 | 0.0 | 1.0 | 0.01 | 0.17 | 0.02 | 96 | 1005.9 |
| 20260504000513 | 54 | 313 | 0.0 | 0.0 | 0.01 | 0.17 | 0.02 | 96 | 1006.0 |
| 20260503234512 | 54 | 314 | 0.0 | 1.0 | 0.02 | 0.17 | 0.02 | 95 | 1006.3 |
| 20260503233512 | 54 | 324 | 0.0 | 1.0 | 0.01 | 0.17 | 0.02 | 95 | 1006.6 |
| 20260503232512 | 54 | 334 | 0.0 | 2.0 | 0.02 | 0.17 | 0.02 | 95 | 1006.7 |
| 20260503231513 | 54 | 309 | 0.0 | 2.0 | 0.02 | 0.17 | 0.02 | 95 | 1006.7 |
| 20260503230512 | 54 | 319 | 1.0 | 3.0 | 0.02 | 0.17 | 0.02 | 95 | 1007.1 |
| 20260503225512 | 54 | 304 | 1.0 | 8.0 | 0.01 | 0.16 | 0.01 | 95 | 1007.2 |
| 20260503223512 | 54 | 141 | 4.0 | 7.0 | 0.03 | 0.16 | 0.01 | 95 | 1007.1 |
| 20260503221509 | 53 | 107 | 0.0 | 3.0 | 0.07 | 0.15 | 0.00 | 95 | 1007.2 |
| 20260503215513 | 53 | 90 | 3.0 | 5.0 | 0.08 | 0.15 | 0.15 | 94 | 1007.4 |
| 20260503214513 | 54 | 90 | 2.0 | 5.0 | 0.07 | 0.14 | 0.14 | 94 | 1007.5 |
| 20260503213513 | 53 | 29 | 0.0 | 2.0 | 0.07 | 0.13 | 0.13 | 94 | 1007.9 |
| 20260503212513 | 53 | 24 | 0.0 | 0.0 | 0.05 | 0.09 | 0.09 | 94 | 1007.5 |
| 20260503204513 | 53 | 58 | 3.0 | 6.0 | 0.07 | 0.07 | 0.07 | 92 | 1007.3 |
| 20260503203512 | 54 | 105 | 2.0 | 5.0 | 0.06 | 0.06 | 0.06 | 92 | 1007.6 |
| 20260503202512 | 54 | 101 | 0.0 | 2.0 | 0.05 | 0.05 | 0.05 | 91 | 1008.1 |
| 20260503200512 | 53 | 200 | 0.0 | 6.0 | 0.00 | 0.00 | 0.00 | 90 | 1008.6 |
| 20260503193513 | 54 | 49 | 5.0 | 6.0 | 0.00 | 0.00 | 0.00 | 89 | 1008.1 |
| 20260503191513 | 54 | 31 | 3.0 | 6.0 | 0.00 | 0.00 | 0.00 | 89 | 1008.1 |
| 20260503190512 | 54 | 36 | 3.0 | 8.0 | 0.00 | 0.00 | 0.00 | 89 | 1008.0 |
| 20260503184512 | 55 | 42 | 3.0 | 6.0 | 0.00 | 0.00 | 0.00 | 88 | 1008.1 |
| 20260503182513 | 56 | 46 | 0.0 | 6.0 | 0.00 | 0.00 | 0.00 | 88 | 1008.3 |
| 20260503180512 | 56 | 43 | 3.0 | 6.0 | 0.00 | 0.00 | 0.00 | 86 | 1008.4 |
| 20260503175513 | 56 | 34 | 0.0 | 5.0 | 0.00 | 0.00 | 0.00 | 85 | 1008.4 |
| 20260503174513 | 57 | 28 | 2.0 | 6.0 | 0.00 | 0.00 | 0.00 | 85 | 1008.3 |
| 20260503172514 | 58 | 47 | 3.0 | 6.0 | 0.00 | 0.00 | 0.00 | 84 | 1008.5 |
| 20260503171512 | 58 | 300 | 1.0 | 3.0 | 0.00 | 0.00 | 0.00 | 83 | 1008.6 |
| 20260503150517 | 56 | 342 | 1.0 | 5.0 | 0.00 | 0.00 | 0.00 | 85 | 1010.0 |